Location: Newark
(40.4500°N, 15.1500°E)
Time: 23:16:57
(UTC+00:00)

N. Korean satellite - Visible Passes

Search period start: 15 December 2019 00:00
Search period end: 25 December 2019 00:00
Orbit: 455 x 507 km, 97.2° (Epoch: 14 December)

Date Brightness Start Highest point End Pass type
(mag) Time Alt. Az. Time Alt. Az. Time Alt. Az.
15 Dec 7.9 04:29:33 10° NNE 04:32:52 40° E 04:36:08 10° S visible
15 Dec 8.7 16:37:34 10° SSW 16:40:53 31° W 16:44:12 10° NNW visible
16 Dec 9.3 04:04:46 10° NE 04:07:18 19° E 04:09:49 10° SE visible
16 Dec 7.7 05:37:54 10° NNW 05:40:38 22° WNW 05:43:21 10° WSW visible
16 Dec 7.0 16:11:44 10° S 16:15:24 69° W 16:19:03 10° NNW visible
17 Dec 6.7 05:11:59 10° N 05:15:20 47° WNW 05:18:38 10° SSW visible
18 Dec 6.6 04:46:27 10° NNE 04:49:56 73° E 04:53:20 10° S visible
18 Dec 9.6 16:55:20 10° SW 16:58:02 19° W 17:00:43 10° NW visible
19 Dec 8.4 04:21:19 10° NNE 04:24:26 31° E 04:27:30 10° SSE visible
19 Dec 8.2 16:29:01 10° S 16:32:29 39° W 16:35:55 10° NNW visible
20 Dec 9.7 03:56:47 10° ENE 03:58:50 15° E 04:00:51 10° SE visible
20 Dec 7.4 05:29:18 10° NNW 05:32:16 27° WNW 05:35:13 10° SW visible
20 Dec 6.6 16:03:21 10° SSE 16:07:01 89° W 16:10:39 10° NNW visible
21 Dec 6.4 05:03:30 10° N 05:06:56 62° WNW 05:10:18 10° SSW visible
21 Dec 10.1 17:13:49 10° WSW 17:15:11 12° W 17:16:33 10° WNW visible
22 Dec 7.2 04:38:05 10° NNE 04:41:29 55° E 04:44:50 10° S visible
22 Dec 9.2 16:46:36 10° SSW 16:49:35 24° W 16:52:33 10° NW visible
23 Dec 8.9 04:13:05 10° NE 04:15:57 24° E 04:18:47 10° SSE visible
23 Dec 8.0 05:46:51 10° NNW 05:49:10 17° WNW 05:51:28 10° WSW visible
23 Dec 7.6 16:20:31 10° S 16:24:03 50° W 16:27:35 10° NNW visible
24 Dec 9.9 03:49:04 10° ENE 03:50:19 12° E 03:51:35 10° ESE visible
24 Dec 7.0 05:20:43 10° N 05:23:52 35° WNW 05:27:00 10° SW visible
